Location: Ermatingen
(47.6706°N, 9.0857°E)
Time: 01:33:38
(UTC+00:00)

NOSS 3-2 (A) - Pass Details

Date: 18 September 2020
Orbit: 795 x 1413 km, 63.4° (Epoch: 02 October)

Event Time Altitude Azimuth Distance (km) Brightness Sun altitude
Rises 20:00:25 0° 317° (NW) 3,979 8.0 -24.9°
Reaches altitude 10° 20:03:01 10° 314° (NW) 3,100 7.1 -25.2°
Maximum altitude 20:10:24 58° 238° (WSW) 1,481 4.4 -26.3°
Enters shadow 20:13:56 35° 177° (S) 2,025 4.8 -26.7°
